Index of /pmb/codes/nwprod/versions

NameLast modifiedSize

Parent Directory  -
runhistory.ver13-Jul-2016 01:03 24
verf_g2g.ver08-Jul-2016 01:03 131
transfers_wcoss.ver07-Jul-2016 01:04 74
obsproc_satingest.ver06-Jul-2016 01:03 99
prod_filemanager.ver29-Jun-2016 01:02 24
mag.ver22-Jun-2016 01:02 23
nhc_guidance.ver15-Jun-2016 01:02 24
send_to_web.ver07-Jun-2016 17:45 24
cfs.ver26-May-2016 01:07 49
wsr88d_level2.ver25-May-2016 01:02 23
wave_multi_2.ver12-May-2016 02:48 81
wave_multi_1.ver12-May-2016 02:48 81
vessel_icing.ver12-May-2016 02:48 31
verf_s1.ver12-May-2016 02:48 26
verf_precip.ver12-May-2016 02:48 30
verf_gridtobs.ver12-May-2016 02:48 25
ukmet.ver12-May-2016 02:48 24
tropcy_qc_reloc.ver12-May-2016 02:48 80
tbofs.ver12-May-2016 02:48 175
smartinit.ver12-May-2016 02:48 262
sfbofs.ver12-May-2016 02:48 175
sdmedit.ver12-May-2016 02:48 23
rtofs_glo.ver12-May-2016 02:48 70
rdhpcs.ver12-May-2016 02:48 24
rap.ver12-May-2016 02:48 25
poes_phyret_sst.ver12-May-2016 02:48 134
ofs_atl.ver12-May-2016 02:48 26
obsproc_rap.ver12-May-2016 02:48 788
obsproc_nam.ver12-May-2016 02:48 815
nwps.ver12-May-2016 02:48 48
nwgofs.ver12-May-2016 02:48 175
nhc_wsp.ver12-May-2016 02:48 24
ngofs.ver12-May-2016 02:48 174
ngac.ver12-May-2016 02:48 24
negofs.ver12-May-2016 02:48 175
nam.ver12-May-2016 02:48 183
models_realtime.ver12-May-2016 02:48 23
hysplit.ver12-May-2016 02:48 70
global_fog.ver12-May-2016 02:48 29
gefs_legacy.ver12-May-2016 02:48 137
estofs_pac.ver12-May-2016 02:48 47
estofs.ver12-May-2016 02:48 47
dgex.ver12-May-2016 02:48 24
dbofs.ver12-May-2016 02:48 175
dbnet_tranjb.ver12-May-2016 02:48 80
creofs.ver12-May-2016 02:48 176
cdas2.ver12-May-2016 02:48 25
cbofs.ver12-May-2016 02:48 175
amsu_estimation.ver12-May-2016 02:48 97
glofs.ver04-May-2016 01:03 47
obsproc_global.ver21-Mar-2016 01:05 858
lamp.ver14-Jan-2016 01:11 83
seaice_drift.ver16-Dec-2015 01:17 297
rtgssthr.ver09-Dec-2015 01:17 105
wsr.ver03-Dec-2015 01:05 24
wave_gwes.ver03-Dec-2015 01:05 68
runtime.ver03-Dec-2015 01:05 26
runhistory.ver.later03-Dec-2015 01:05 25
rcdas.ver25-Nov-2015 01:50 25
nldas.ver25-Nov-2015 01:50 24
wave_glw.ver04-Nov-2015 01:22 69
wsa_enlil.ver30-Sep-2015 01:37 47
radar_reflectivity_ref2grb.ver11-Aug-2015 01:22 45
obsproc_dump_monitor.ver11-Aug-2015 01:22 177
obsproc_cdas.ver11-Aug-2015 01:22 539
hiresw.ver29-Jul-2015 01:31 25
urma2p5.ver08-Jul-2015 01:21 24
rtma2p5.ver08-Jul-2015 01:21 24
prrtma.ver08-Jul-2015 01:21 24
hirtma.ver08-Jul-2015 01:21 24
gurtma.ver08-Jul-2015 01:21 24
akrtma.ver08-Jul-2015 01:21 24
gfs_smartinit.ver23-Jun-2015 01:20 70
fnmoc_wave.ver06-Jun-2015 01:23 29
cmc.ver06-Jun-2015 01:23 22
ecmwfens.ver21-Apr-2015 01:16 24
seaice_concentration_analysis.ver14-Apr-2015 01:18 811
hrly_realtime.ver01-Apr-2015 01:19 23
ecmwf.ver31-Mar-2015 01:18 24
sstoiqd.ver04-Mar-2015 02:51 47
gfs_wafs.ver15-Jan-2015 05:37 47
gdas_sstoi.ver15-Jan-2015 05:37 102
radar_reflectivity_mosaic.ver05-Nov-2014 01:17 44
obsproc_dump_alert.ver05-Nov-2014 01:17 77
obsproc_airnow.ver05-Nov-2014 01:17 170
mmablib.ver15-Oct-2014 02:12 24
navgem.ver01-Oct-2014 01:19 24
rcliper.ver24-Sep-2014 02:13 24
psurge.ver03-Sep-2014 01:15 24
fnmoc_coamps.ver13-Aug-2014 01:18 24
madis_dump.ver16-Jul-2014 01:34 24
wave_nfcens.ver09-Jul-2014 01:20 24
nam_smartinit.ver07-May-2014 01:25 24
admin.ver02-May-2014 01:27 34
mag_gfs.ver05-Nov-2013 01:49 24
wave_mens.ver31-Jul-2013 01:30 67
rtofs_gsf.ver26-Jul-2013 01:54 74
rtofs_et_WPAb.ver26-Jul-2013 01:54 50
gaugeqc.ver26-Jul-2013 01:54 24
narre.ver21-Nov-2012 01:24 24